Home   Weather   Pond Inlet   Past weeks

Flag for Canada Past Weather in Pond Inlet, Nunavut, Canada — Yesterday and Last 2 Weeks

Now
0 °F

Clear.


Feels Like: 0 °F
Forecast: -2 / 11 °F
Wind: 2 mph from Southwest

Location: Pond Inlet

Current Time: Apr 30, 2017 at 1:41:04 am

Latest Report: Apr 30, 2017 at 1:00 am


Visibility: 9 mi

Pressure: 29.91 "Hg

Humidity: 78%

Dew Point: -6 °F

Location of Pond InletLocation

Past Weather in Pond Inlet — Graph

°F

Pond Inlet Temperature Yesterday

Maximum temperature yesterday: 9 °F (at 1:00 pm)
Minimum temperature yesterday: -8 °F (at 1:00 am)
Average temperature yesterday: 4 °F

High & Low Weather Summary for the Past Weeks

 TemperatureHumidityPressure
High12 °F (Apr 22, 10:00 am)92% (Apr 15, 3:00 am)30.34 "Hg (Apr 15, 3:00 am)
Low-15 °F (Apr 19, 5:00 am)52% (Apr 23, 1:00 pm)29.80 "Hg (Apr 18, 4:00 am)
Average-3 °F79%30.12 "Hg
* Reported Apr 14 11:00 pm — Apr 29 11:00 pm, Pond Inlet, Weather by CustomWeather, © 2017

Note: Actual official high and low records may vary slightly from our data, if they occured in-between our weather recording intervals... More about our weather records

Advertising

Pond Inlet Weather History for the Previous 24 Hours

Scroll right to see more
 ConditionsComfort  
Time TempWeatherWind HumidityBarometerVisibility
11:00 pm
Sat, Apr 29
-2 °FClear.8 mph77%29.90 "Hg9 mi
10:00 pm1 °FClear.8 mph78%29.91 "Hg9 mi
9:00 pm5 °FPartly sunny.10 mph72%29.91 "Hg9 mi
8:00 pm9 °FScattered clouds.3 mph61%29.90 "Hg9 mi
7:00 pm9 °FPassing clouds.10 mph61%29.90 "Hg9 mi
6:00 pm9 °FPassing clouds.23 mph61%29.90 "Hg9 mi
5:32 pm9 °FPassing clouds.24 mph66%29.90 "Hg9 mi
5:00 pm9 °FBroken clouds.13 mph61%29.91 "Hg40 mi
4:09 pm9 °FBroken clouds.17 mph61%29.92 "Hg40 mi
3:00 pm9 °FPartly sunny.13 mph66%29.91 "Hg40 mi
2:00 pm9 °FBroken clouds.21 mph61%29.92 "Hg40 mi
1:00 pm9 °FOvercast.23 mph66%29.91 "Hg9 mi
12:37 pm7 °FPartly sunny.21 mph66%29.92 "Hg9 mi
12:00 pm7 °FOvercast.22 mph66%29.93 "Hg9 mi
11:00 am7 °FPartly sunny.17 mph66%29.94 "Hg9 mi
10:00 am7 °FSunny.22 mph66%29.94 "Hg9 mi
9:00 am5 °FPartly sunny.17 mph72%29.96 "Hg9 mi
8:00 am3 °FSunny.12 mph72%29.97 "Hg9 mi
7:50 am5 °FSunny.12 mph66%29.97 "Hg9 mi
7:32 am3 °FLight snow. Sunny.18 mph78%29.97 "Hg9 mi
7:00 am3 °FSunny.18 mph78%29.97 "Hg9 mi
6:00 am1 °FSunny.15 mph78%29.98 "Hg9 mi
5:00 am-2 °FOvercast.3 mph77%29.99 "Hg9 mi
4:00 am-4 °FPassing clouds.5 mph77%29.99 "Hg9 mi
3:00 am-4 °FSunny.No wind77%30.01 "Hg9 mi
2:00 am-6 °FSunny.3 mph77%30.01 "Hg9 mi
1:00 am-8 °FClear.7 mph77%30.01 "Hg9 mi
Weather by CustomWeather, © 2017

See weather overviewHow to use our weather pages